GFSSGP_con_3kmhel_021.txt.gz
Helicity
141 80 43 64 70 51 16 34 18 17 42 42 35 44 -6 26 32 -44 35 43 36 38 45 -7 2 6 20 24 16 8 -10 -6 -1 4 -3 -4 -0 -1 1 1 -3 -8 -5 -3 -1 -4 -6 -3 -3
71 67 68 102 26 26 18 4 -3 43 34 11 12 25 36 22 54 -6 3 24 13 24 38 17 12 18 11 12 3 -16 -5 8 6 -7 -5 4 3 1 1 -1 -6 -5 -1 -5 -7 -6 -4 -3 -4
60 19 58 72 69 2 -31 30 44 17 31 26 16 26 52 60 10 -0 -10 -7 9 24 25 19 17 2 4 -2 -8 5 1 3 -5 -1 7 13 8 1 -1 -1 -5 -2 -4 -2 -7 -10 -7 -1 -2
32 33 54 7 -24 -16 2 72 47 14 12 8 17 46 92 1 42 30 -37 -35 -37 -0 16 2 3 3 11 17 6 -7 -10 -10 4 4 7 11 6 3 -1 -1 -3 -4 -2 -3 -6 -6 -2 6 4
25 14 -18 -32 -39 -25 -19 55 47 18 22 15 49 26 36 49 -11 -31 -39 -42 -43 -25 -11 -9 -8 -7 -4 -7 -7 -14 -17 -8 -4 -4 2 4 4 2 1 2 2 -6 -2 -4 -4 -6 2 7 16
-0 13 -63 -68 -77 -49 -41 67 3 -0 12 17 14 32 39 -63 -44 -36 -33 -34 -33 -22 -23 -24 -15 -10 -5 -0 -6 -7 -6 1 1 6 7 7 13 13 12 8 5 3 4 7 7 11 15 15 27
20 3 -25 -37 -75 -100 -58 53 16 9 22 28 23 37 16 -33 -47 -36 -33 -33 -30 -22 -21 -23 -13 -10 -4 1 3 -0 1 2 5 8 7 11 11 11 12 15 9 13 16 18 22 18 16 15 30
17 2 65 73 77 -56 -3 26 25 19 17 -4 17 43 -15 -7 -33 -28 -31 -33 -35 -31 -21 -8 -11 -11 -7 -6 -0 -1 -3 -1 -2 -2 3 5 12 23 20 25 15 23 21 18 15 14 6 -16 -26
-2 47 94 83 79 -40 59 2 3 7 32 25 13 -4 -2 18 -7 -9 -14 -25 -26 -12 -5 -4 -5 -3 -4 -2 -2 1 -1 -2 -5 -1 2 9 4 6 15 10 20 20 23 22 24 18 10 -2 -5
-1 43 88 55 62 60 49 54 30 15 70 11 -21 -14 73 52 28 41 37 18 13 10 7 -2 1 6 6 2 -1 -4 -7 -6 -8 -5 2 2 5 9 7 18 21 20 11 26 27 8 4 12 3
-14 25 9 26 62 88 80 27 23 22 62 79 48 75 107 51 32 36 29 19 15 11 5 6 3 1 4 -10 -11 -14 -15 -10 -5 -1 -3 -5 -7 -6 -8 -9 -4 -7 1 3 4 -0 -7 -0 9
-3 -25 -4 30 80 150 137 42 11 42 25 49 82 125 83 47 33 24 21 20 21 14 8 3 -0 -4 -3 -13 -8 -9 -4 -4 -5 -4 -7 -11 -16 -14 -13 -8 -15 -10 -12 -7 -3 -7 -15 -17 -13
-0 -9 -5 -11 90 108 147 68 -6 8 -30 15 92 131 98 48 29 13 6 5 11 19 13 5 3 -1 -3 -1 -8 -3 -2 -0 -2 -6 -5 -9 -15 -22 -13 -17 -9 -12 -15 -12 -13 -15 -16 -19 -15
33 30 48 23 54 132 160 57 11 3 -27 15 54 66 70 59 38 18 11 13 17 13 13 8 5 3 -1 -5 -2 -8 -6 -0 -2 -4 -12 12 7 8 15 -1 -6 -15 -11 -13 -19 -20 -17 -13 -15
19 53 44 10 49 56 132 158 97 24 -23 -3 3 20 28 34 40 47 24 23 23 11 5 15 11 6 3 -6 -15 -12 -10 3 9 6 2 23 31 16 33 8 -10 -11 -2 -10 -9 -5 8 3 -0
34 9 -33 -7 17 25 125 153 118 71 58 24 8 -0 2 29 24 7 8 8 8 5 16 10 9 7 7 6 -5 -12 -9 -2 -8 -18 -6 8 14 17 21 8 7 10 7 -3 -2 -15 -13 12 20
48 -33 -46 -39 -9 1 103 57 97 144 109 66 30 22 -3 -1 -11 -2 -6 -16 -17 -7 -9 8 12 21 12 11 -6 -6 -10 -7 -14 -10 -12 -16 8 16 18 12 3 30 16 16 17 29 29 30 25
-51 17 -4 -40 -9 -12 64 78 -27 123 167 127 60 28 14 8 13 -3 -13 -21 -28 -19 -10 1 23 11 -9 -9 -13 -12 -10 -8 -12 -12 -15 -8 2 7 18 15 29 47 51 72 60 19 9 27 29
13 24 23 22 -7 17 97 48 10 84 140 146 95 60 34 24 6 -16 -17 -15 -23 -27 -10 7 23 25 10 8 7 4 19 18 11 7 6 7 2 3 8 21 53 83 69 67 35 15 27 32 33
18 15 27 63 48 -8 -0 78 25 105 170 165 143 107 92 34 -14 -32 -38 -17 -5 6 19 21 33 28 22 16 23 24 30 22 24 26 36 29 18 34 33 40 55 51 63 43 24 32 33 40 42
51 -59 -21 36 76 115 23 59 82 62 82 84 70 69 63 59 51 42 23 25 27 18 30 51 57 54 21 10 -9 3 13 9 33 66 58 43 32 26 35 46 53 58 56 54 54 38 33 29 35
12 33 27 61 66 34 62 69 19 69 92 103 81 70 47 35 14 12 19 21 22 34 67 89 65 52 6 -4 -12 14 32 34 25 14 7 3 7 23 43 62 80 95 89 88 68 60 42 33 31
66 56 49 62 61 72 44 33 61 3 29 117 136 113 89 25 20 4 3 15 35 33 58 83 73 34 -10 -30 -11 7 -2 -19 -26 -14 -8 -7 2 9 54 90 110 102 96 93 81 71 51 42 37
111 152 183 145 97 73 -9 46 15 27 50 85 151 179 123 83 46 21 28 31 16 27 49 63 77 35 -11 -42 -33 8 18 12 2 18 26 21 32 40 55 83 91 81 86 88 83 64 51 46 32
136 128 155 136 161 39 61 35 -11 -10 49 108 83 188 266 260 97 32 28 39 27 55 61 67 81 29 -8 -25 -27 -5 15 25 42 40 38 62 63 68 79 105 110 98 90 89 89 70 63 56 49
127 110 181 145 149 85 131 53 17 15 90 45 23 38 114 155 191 88 73 78 72 74 81 85 79 52 10 -22 -40 -49 14 28 64 58 63 69 81 76 84 99 107 107 103 101 87 72 64 63 56
246 270 111 156 229 136 89 93 72 24 7 14 79 54 122 118 167 160 112 59 58 82 94 115 94 57 35 -4 -24 -16 23 53 64 93 90 95 96 99 104 110 116 113 113 111 104 83 68 58 57
205 203 235 217 135 124 113 116 55 66 26 -6 14 97 98 157 168 135 119 97 65 72 117 109 112 127 101 51 15 19 44 81 78 26 95 107 133 98 104 124 113 113 111 110 102 98 86 76 61
304 273 258 198 192 120 71 31 63 34 42 37 -9 10 51 155 191 151 141 136 99 77 39 85 110 124 115 134 128 115 108 172 150 146 66 116 96 104 90 102 106 107 107 99 91 69 54 67 63
115 129 190 275 238 213 155 95 114 -7 -6 34 10 18 29 52 101 59 53 79 64 70 73 106 177 214 253 230 238 232 256 354 244 140 181 135 127 95 73 88 90 94 85 78 78 58 51 40 48

GFSSGP_con_3kmhel_024.txt.gz
Helicity
217 124 86 95 83 81 -15 20 29 36 31 14 28 9 5 58 91 16 -31 -37 -50 -64 -60 -43 -21 -10 -9 19 26 5 -1 8 4 10 12 14 25 23 15 6 3 6 3 -0 -0 -7 -8 -11 -4
147 140 131 119 81 9 13 18 -17 31 18 -2 2 12 23 5 8 -11 -32 -50 -26 -22 -23 -13 9 15 16 9 -8 -12 -8 -13 -3 5 13 21 16 17 8 1 1 3 -3 -6 -6 -5 -3 -8 -4
98 95 72 54 69 37 13 28 12 6 4 15 22 33 37 -5 -6 3 -30 -48 -56 -61 -58 -29 10 -2 -2 -19 -18 -20 -23 -17 -3 12 18 18 13 9 4 -5 -8 -9 -11 -14 -14 -11 -4 -3 -7
66 73 105 40 1 27 8 8 4 -4 1 19 8 13 67 -2 -1 17 -40 -48 -64 -54 -36 -47 -28 -30 -31 -29 -32 -31 -22 -9 4 21 21 18 15 9 -2 -7 -7 -10 -11 -14 -15 -13 -7 -3 -0
45 32 16 -5 5 14 4 14 20 10 12 22 2 22 36 -41 -10 -22 -39 -44 -42 -42 -50 -40 -37 -34 -23 -23 -25 -18 -20 -1 14 15 16 17 15 4 -6 -7 -8 -9 -13 -9 -3 -1 1 -2 3
36 29 -24 -8 -4 -20 -13 -18 -6 -0 5 15 20 41 51 -30 -23 -29 -26 -18 -27 -24 -27 -33 -26 -6 3 2 -7 -4 11 14 15 14 15 13 10 2 -4 -4 -3 -3 -3 -1 8 9 9 2 9
17 82 -5 -17 -15 -9 -4 -25 -20 -4 -4 4 12 27 18 -5 -18 -23 -19 -20 -19 -5 -15 -14 2 6 -0 -4 4 11 10 11 8 8 6 8 13 6 14 10 8 9 11 16 11 13 -0 7 2
30 53 47 12 21 24 8 -19 -3 -3 13 29 -19 15 22 21 -6 -9 -15 -16 -14 -12 -19 -16 -3 1 4 4 5 -0 -4 -2 -4 1 4 11 13 19 26 29 5 9 14 15 16 16 14 17 -13
30 65 12 11 11 41 58 -3 -10 9 9 23 22 -22 56 34 10 -0 -8 -13 -24 -17 -3 -5 -1 -1 -0 1 -8 -5 -5 -6 -2 6 8 19 15 4 12 -21 4 18 18 19 20 18 16 28 31
35 70 19 9 23 45 42 2 12 6 17 -8 -13 21 76 48 27 25 20 12 6 -6 -2 -6 -2 -5 -2 -2 -8 3 -2 6 5 -0 -4 9 -9 -4 -5 4 19 30 17 20 11 15 33 48 13
39 81 8 -14 16 75 48 6 -2 -17 17 27 11 30 75 52 27 25 19 20 19 10 8 4 -2 -4 4 -8 -3 -6 -6 -9 -7 -4 -0 -3 -4 -3 1 -4 12 -1 10 8 7 27 13 -2 -0
36 5 -6 27 34 58 66 54 11 8 6 14 12 51 56 38 24 18 17 21 20 17 11 3 -0 -0 4 -12 -6 -4 -5 -6 -7 -4 -2 -6 -2 -0 -2 -9 -16 -2 -12 -10 -7 -11 -19 -4 -9
22 13 1 -6 34 34 57 40 11 12 18 7 6 34 55 40 23 15 14 6 4 10 10 10 8 5 2 -2 -6 -5 -5 -5 -4 -2 5 -5 -6 -5 5 -8 -11 -12 -4 -3 -18 -19 -21 -21 -10
4 9 21 -9 26 28 39 47 -2 -13 -14 17 41 34 29 34 18 5 6 11 11 6 10 7 12 12 8 5 4 -3 -5 -7 1 -5 -4 14 10 11 1 3 2 -8 -14 -22 -27 -24 -26 -22 -19
37 28 15 4 15 24 15 88 47 -4 -49 -23 12 15 27 39 29 36 25 19 13 12 4 12 11 18 13 6 -0 1 1 1 1 -1 -0 7 6 8 11 -3 -6 -10 3 -3 -14 -17 -14 -9 -14
9 -2 -3 16 14 17 38 105 85 85 -16 -35 -9 -8 -6 32 42 21 11 6 2 -1 20 11 9 23 18 12 -3 -10 -5 -6 -3 -7 -5 -4 3 -6 -3 -10 -3 1 -4 -6 -7 -12 -7 1 -1
-24 5 4 27 3 8 47 43 106 62 47 -18 -15 -10 -12 -9 -3 12 9 7 4 2 5 15 18 18 15 6 -4 -4 -4 -10 -5 -3 -3 -2 -8 -6 -15 -11 -5 9 10 11 11 19 32 13 9
8 28 25 -7 -10 -17 46 26 13 70 95 61 3 -5 -15 -19 -1 12 11 5 -0 6 -2 -1 2 1 -0 -5 5 -11 -10 -10 -9 -5 -6 -4 -14 -12 -4 3 10 15 38 13 43 36 51 22 42
18 17 7 15 29 8 47 34 4 4 82 74 78 38 16 4 -2 -0 1 6 3 7 18 10 8 10 3 8 -0 5 2 -6 -11 -18 -11 -12 -5 -3 -2 -7 15 25 7 69 53 30 27 32 55
34 -4 -9 54 29 10 12 49 15 14 77 78 73 82 47 9 -26 -15 -3 -0 9 15 12 13 5 13 11 -6 -16 -20 -17 -5 -3 7 -6 -11 -9 11 13 13 15 37 52 37 38 36 36 33 40
-48 -14 -36 42 28 17 44 54 55 30 29 40 77 56 64 38 26 33 12 12 11 24 16 20 15 20 19 3 -14 -21 -31 -18 -3 -2 -10 -2 -4 -16 -5 4 3 33 7 24 28 35 29 38 28
-31 -23 33 35 47 38 32 17 17 15 43 47 82 92 71 94 70 44 57 61 56 38 29 15 14 20 16 11 -19 -19 -24 -22 -27 -39 -43 -46 -43 -42 -25 -8 2 17 13 38 39 34 31 22 31
-38 23 43 35 46 40 59 55 47 56 -42 21 78 117 113 82 70 78 89 78 73 49 21 3 -0 6 -2 -3 -36 -32 -41 -58 -59 -46 -37 -31 -10 -16 -5 5 24 25 19 60 49 40 39 36 37
66 56 44 34 48 -57 -1 14 25 30 8 -3 22 81 113 133 106 61 40 41 30 16 -10 -25 -8 -2 -2 -15 -37 -56 -65 -54 -42 -13 -1 2 10 19 21 44 68 72 58 56 44 38 37 39 42
101 88 95 98 91 46 39 18 -13 48 24 13 7 59 88 95 132 129 67 69 46 26 -7 -27 -20 -9 -2 -15 -40 -57 -56 -37 -21 -3 -10 -11 6 21 57 58 72 78 67 72 52 45 31 36 21
113 59 85 81 77 79 61 37 -61 27 21 24 18 21 62 59 87 131 132 84 69 45 16 1 10 8 6 -0 -32 -55 -51 -41 -21 -8 -19 4 17 30 88 65 69 72 90 92 82 63 38 51 37
131 128 38 31 46 51 51 86 9 39 14 12 9 11 11 62 76 94 112 118 86 57 40 51 46 38 32 14 -29 -48 -46 -28 -23 -7 21 32 59 74 87 85 81 67 84 93 90 57 70 57 50
87 108 99 66 59 50 32 36 56 16 -4 -8 -2 9 18 54 69 60 67 114 118 80 37 31 50 66 39 15 6 -23 -17 -4 17 39 24 54 95 121 112 94 95 84 83 84 73 60 73 74 59
185 143 96 68 77 61 53 36 36 29 18 21 16 15 17 27 66 80 82 55 118 86 47 25 29 18 13 56 93 73 86 93 88 101 66 205 115 119 159 121 72 83 73 78 75 56 56 74 65
78 115 110 176 106 84 43 28 6 16 20 -5 -4 19 41 41 34 86 109 50 46 78 64 41 23 9 36 95 158 148 176 208 197 174 145 266 285 141 207 88 351 164 81 70 78 55 48 57 47

GFSSGP_con_3kmhel_030.txt.gz
Helicity
119 25 21 -16 19 66 -18 -7 50 44 15 27 -0 -13 -32 26 -80 -12 -49 -8 -24 -34 -35 -39 -38 -46 -28 -17 39 47 39 36 50 39 29 15 3 3 2 5 7 -16 -18 -22 -23 -23 -23 -16 -11
171 35 7 47 83 19 -15 24 -73 -28 -1 40 44 43 107 70 60 -28 -53 -9 -5 -10 -28 -39 -45 -38 -16 3 2 1 -17 3 11 3 14 -6 -1 1 4 6 8 6 -17 -15 -19 -17 -13 -13 -13
128 37 51 4 -18 -7 -17 46 -65 14 14 15 -1 8 24 11 1 -30 -33 -24 -22 -39 -47 -53 -40 -27 -22 -17 -19 -19 -16 -25 -25 -24 -13 -10 -5 -0 4 11 14 17 -22 -18 -15 -10 -10 -13 -13
-56 84 15 162 -26 -54 25 -54 -10 2 29 66 121 54 16 -2 4 -8 -20 -27 -38 -36 -43 -37 -25 -26 -35 -26 -22 -20 -19 -22 -21 -15 -13 -9 -4 2 16 21 16 15 -11 -16 -14 -16 -18 -20 -3
16 87 230 -1 13 27 -12 87 85 -12 96 90 148 128 28 40 18 -3 -2 -9 -19 -23 -29 -28 -28 -33 -24 -24 -19 -16 -20 -19 -18 -14 -10 -1 5 16 19 13 18 19 12 13 6 -12 -17 -22 -27
288 175 193 38 20 44 25 32 -16 26 46 111 98 83 -20 74 18 -0 -13 -31 1 -18 -21 -26 -27 -29 -22 -15 -16 -20 -16 -12 -7 -5 3 9 17 24 25 22 28 18 12 5 -1 -22 23 8 19
215 118 148 72 42 28 -1 53 43 65 66 100 78 47 16 71 12 -20 -8 4 37 29 -13 -29 -27 -28 -19 -23 -20 -13 -7 -2 5 13 20 26 32 43 47 44 41 20 7 7 7 19 25 16 34
84 2 147 27 39 72 -23 60 28 53 45 69 101 38 93 24 38 55 -25 -45 109 42 -4 -14 -24 -20 -18 -15 -10 -5 -1 6 10 18 33 40 41 45 46 57 58 53 39 38 40 45 39 34 39
7 -3 32 73 90 99 -22 41 54 28 37 102 85 51 23 15 119 47 -7 -14 75 -22 -9 -7 -9 -16 -18 -14 -10 -4 2 6 13 25 43 34 51 65 81 58 86 57 32 22 32 41 33 42 70
125 143 91 187 49 32 19 3 69 38 21 35 42 53 56 22 67 58 3 -0 -20 -11 -11 -11 -7 -8 -3 -5 2 -1 4 10 21 35 53 48 63 18 69 62 50 36 6 43 27 34 61 31 55
84 42 110 245 44 38 11 39 7 57 13 16 137 135 33 22 36 166 95 1 4 24 -30 -3 -26 -22 -9 14 -18 -17 20 3 -4 32 52 35 -0 -5 3 -29 1 29 68 47 53 31 39 32 32
309 22 82 44 13 49 36 38 -13 37 42 45 117 99 35 24 -1 -1 77 27 133 22 -16 35 4 -1 -0 41 -25 -21 40 5 28 77 -0 -9 -1 -4 -21 -33 6 -11 92 24 -53 17 29 -21 -25
213 97 237 24 8 29 68 33 26 10 54 56 105 78 47 24 8 -6 5 29 43 -0 49 22 111 27 -40 -21 -17 -13 -0 3 7 100 27 -34 -1 -14 -35 -19 -0 -22 -24 43 13 19 -34 -24 -28
35 114 50 33 30 17 37 50 35 31 52 56 134 72 43 38 27 -3 -15 17 42 12 -4 64 73 37 -19 -37 2 -31 18 -41 -36 -17 105 8 -11 23 29 5 -17 13 -2 14 22 -13 -17 -41 -27
47 32 -0 41 -17 8 6 56 42 95 12 59 104 62 44 26 26 24 -12 28 29 17 9 60 50 55 16 -26 -14 -2 14 -21 -11 -7 40 32 30 58 1 -9 -24 7 16 -12 31 -7 -13 6 51
38 22 -8 34 2 36 4 166 7 92 23 54 57 49 46 25 37 20 -3 38 41 33 34 21 15 99 48 8 -4 -8 -9 -34 -10 -20 101 111 9 -2 3 5 10 -18 44 48 11 43 37 38 68
24 -11 -2 149 -28 64 63 210 109 89 25 41 32 35 35 14 9 27 16 33 67 35 60 55 27 59 140 37 8 -3 -40 -32 -26 -81 4 1 26 14 10 19 1 23 15 40 75 75 47 64 60
14 3 -5 138 17 -2 256 326 -74 61 14 28 28 31 9 16 12 52 19 27 29 68 81 93 43 8 183 68 24 -0 -9 -29 -44 -18 -16 46 53 10 50 5 32 2 36 82 47 77 84 58 59
35 3 42 151 173 13 116 147 -39 -173 7 22 36 31 25 7 22 20 35 59 58 83 120 133 95 71 172 153 97 27 -7 6 5 -19 82 152 18 33 72 45 21 53 50 56 29 72 48 40 66
31 -0 -1 133 206 -4 49 134 32 -103 42 26 50 65 33 28 16 28 73 35 93 104 149 166 125 129 151 137 106 24 24 15 104 24 39 58 16 55 48 20 50 22 53 47 86 43 37 24 51
-17 -10 -17 79 90 -11 23 19 46 84 76 22 23 100 92 53 44 93 80 71 102 150 195 208 154 138 140 103 63 -19 37 31 32 31 4 55 83 74 69 46 59 43 31 99 62 44 26 30 30
-33 -15 31 17 72 84 -10 -5 52 42 118 103 97 -12 86 111 70 56 166 190 117 169 222 224 188 145 127 26 42 38 13 -15 -11 12 9 84 113 54 49 34 44 26 60 48 47 65 29 27 26
-40 -15 6 30 2 96 139 50 24 32 60 110 90 31 -9 91 96 55 148 260 217 187 273 291 229 155 123 59 29 7 41 -6 -44 3 113 62 82 37 44 36 44 45 57 95 93 68 47 14 19
-6 13 24 23 21 42 117 153 26 180 101 111 110 41 36 -2 104 120 77 212 322 246 276 306 325 208 157 100 34 -8 28 -44 -22 -26 22 10 23 19 27 51 53 82 91 88 80 95 34 29 17
-19 -6 55 64 59 14 62 235 110 46 185 109 140 31 69 53 34 151 177 165 353 342 307 332 384 285 184 140 61 1 -33 -8 -62 -45 -6 3 8 70 42 62 117 106 88 125 128 100 69 45 38
-2 -14 86 101 63 41 18 57 174 116 169 154 -15 -39 24 73 58 131 222 191 279 346 345 343 426 350 223 142 82 34 -16 -9 -28 -29 -24 13 -0 71 142 111 138 156 101 129 153 182 44 66 53
7 38 7 9 8 29 38 82 49 84 140 144 77 38 102 116 38 125 185 232 218 325 351 370 417 391 245 154 86 53 34 24 20 -2 -13 -20 -14 63 240 196 216 146 136 82 126 125 182 84 96
-45 33 43 42 48 60 35 44 74 212 304 53 13 51 82 39 79 116 123 211 253 284 343 320 346 378 264 161 103 66 63 46 26 14 20 48 40 147 242 239 240 195 131 150 126 51 121 209 41
56 -20 1 56 40 68 58 43 30 211 171 129 132 154 17 43 85 128 148 214 285 308 363 325 285 289 242 164 105 66 65 72 72 70 106 139 91 162 335 281 229 210 222 224 186 112 119 180 98
24 74 -51 62 80 86 12 40 9 72 149 153 54 38 42 20 -20 88 178 179 282 330 396 395 263 230 201 180 105 82 83 91 109 137 181 224 204 257 366 348 301 273 294 262 255 164 145 190 180

GFSSGP_con_3kmhel_033.txt.gz
Helicity
74 7 3 22 32 -13 8 -48 30 25 27 -18 -22 1 17 74 -69 -75 -36 -15 -36 -36 -25 -26 -43 -51 -43 -22 -3 4 11 22 20 7 8 10 1 1 0 10 11 -14 -28 -24 2 16 23 21 16
57 70 40 65 -78 -110 -44 -40 -35 52 -18 -10 66 84 26 -36 0 -58 -75 -31 -38 -32 -31 -33 -36 -34 -37 -38 -23 -23 -13 -11 -16 -2 2 2 -2 -3 7 14 15 10 -8 3 23 28 31 29 21
101 17 -31 -62 -41 -64 -52 -42 -32 48 76 59 -25 -16 -10 12 1 -39 -58 -32 -27 -41 -45 -34 -35 -32 -30 -27 -23 -23 -18 -18 -16 -13 -5 -2 10 10 13 14 19 24 25 22 24 31 34 35 23
15 64 44 -151 -77 -111 -59 1 -27 46 140 96 120 59 -14 -22 -40 -62 -32 -28 -39 -41 -47 -36 -27 -25 -26 -16 -12 -15 -18 -22 -19 -13 -6 7 6 17 18 20 30 29 21 9 14 27 40 34 14
-49 9 83 25 -119 -43 -60 14 60 171 207 148 164 57 18 -11 -21 -31 -27 -10 -7 -41 -48 -38 -26 -29 -26 -14 -12 -15 -14 -14 -14 -9 1 10 21 24 18 32 43 41 33 39 30 42 40 -21 -13
55 5 67 58 1 18 30 228 138 203 246 90 125 84 -21 -14 -11 -23 -30 -28 5 -20 -42 -38 -28 -19 -16 -10 -8 -8 -7 -8 -5 4 10 15 23 33 44 51 58 56 41 36 40 45 43 0 22
-9 19 182 221 -20 27 100 -10 98 227 173 51 74 95 -13 -33 -9 -27 -21 12 -5 -16 -30 -44 -40 -21 -12 -6 -5 -6 2 7 8 13 19 23 26 41 53 54 65 71 58 46 28 13 -25 -29 -28
-26 25 208 131 120 55 52 21 125 130 166 81 148 25 26 -11 -48 -57 -31 -3 26 12 -7 -28 -36 -25 -20 -10 -7 2 11 12 12 20 28 27 27 58 63 64 73 65 56 52 44 45 41 25 -7
-148 145 212 228 87 21 35 102 50 135 177 60 40 47 14 -15 -53 -30 -63 18 48 -17 0 -22 -22 -22 -20 -12 -1 6 14 13 19 20 26 24 26 59 68 55 65 55 38 16 34 35 39 9 -5
-13 147 178 139 43 -64 65 73 -12 114 156 28 137 54 105 5 -58 67 85 34 2 -25 -14 -17 -17 -16 -13 -9 -12 -4 5 4 9 9 20 40 55 57 59 43 29 78 41 27 15 18 29 48 31
68 200 76 86 70 -56 62 17 119 156 166 87 199 233 164 41 40 126 18 65 30 -13 -32 -11 -13 -14 -20 -17 -15 -21 -20 -25 -22 -3 7 48 37 10 61 56 11 13 30 6 17 12 11 21 27
120 91 84 50 -14 -1 77 86 192 100 99 216 243 263 182 134 101 46 38 65 60 19 7 21 -11 -9 -33 25 9 -27 -22 -30 -26 5 -14 13 -6 -13 30 14 19 27 46 15 11 12 18 30 50
114 35 30 146 51 33 42 82 52 79 206 200 248 130 135 138 177 103 34 40 46 22 8 12 -5 -5 11 24 -2 -16 -5 10 21 33 29 -26 3 -11 3 30 21 17 28 32 24 6 5 22 4
108 54 38 80 103 36 66 62 91 154 186 213 279 116 -1 76 135 74 62 60 66 40 34 70 33 59 57 25 8 -5 3 47 70 78 57 -16 34 29 17 3 9 -2 -9 21 24 18 23 11 10
-23 103 15 68 3 152 135 60 125 136 211 309 213 102 6 -19 -34 54 209 140 53 19 7 162 131 97 120 33 -25 -37 17 6 -7 33 33 24 73 58 28 5 3 18 27 35 36 9 -7 36 31
12 -34 -62 -18 38 116 151 189 169 125 270 257 247 92 45 -3 -20 -7 127 149 88 31 169 182 141 91 49 63 -1 -38 -7 20 -9 -28 23 45 71 57 36 4 1 44 31 25 10 28 45 36 57
-31 -33 -19 60 249 79 182 267 184 62 187 196 222 93 48 18 20 48 86 162 168 93 169 174 143 105 60 25 45 -6 -23 -16 -29 9 41 50 85 67 38 13 22 2 52 57 37 35 51 38 49
-64 -27 39 45 109 139 298 209 212 151 120 188 199 159 70 43 41 102 87 146 188 129 127 156 130 174 108 52 35 -2 -28 -29 -15 -6 7 46 54 37 35 24 41 33 59 76 65 75 70 51 52
-15 -1 6 65 212 157 162 227 105 63 -36 123 333 266 132 87 15 93 109 161 177 163 174 184 156 194 185 136 104 40 12 -4 -18 -2 27 56 71 95 79 58 50 42 66 71 64 65 46 48 29
-39 -32 -8 79 270 300 234 100 -2 131 -6 153 278 359 239 161 61 105 117 165 202 199 220 196 182 227 224 202 137 47 25 -40 -41 -67 76 115 78 78 48 40 40 60 63 81 76 48 38 48 21
-76 -94 -47 71 142 99 62 115 -37 -29 85 2 38 300 290 256 201 148 142 150 205 231 256 253 223 233 241 231 143 51 30 -34 -39 -24 28 56 59 78 72 50 44 52 49 77 57 55 51 62 12
-67 -58 35 116 172 195 58 29 23 -29 -30 -107 -33 263 313 266 250 273 284 256 290 302 311 287 264 244 240 238 183 108 61 15 0 39 56 45 49 76 91 78 80 54 60 115 91 70 55 73 58
-58 30 77 72 110 208 1 79 -51 17 -14 -116 27 259 279 262 269 326 405 423 416 447 417 384 294 262 212 211 170 83 41 19 -5 4 62 89 81 120 90 103 54 77 70 93 109 87 102 73 75
-6 19 33 7 26 265 137 152 4 121 136 -43 71 210 276 242 249 282 383 446 414 483 519 490 378 272 234 175 136 76 22 4 -29 -36 91 114 117 110 78 112 92 84 102 104 103 92 142 102 95
16 -21 67 80 43 62 105 178 102 20 159 230 188 179 143 218 257 236 305 396 429 465 560 578 489 343 263 176 137 74 26 -10 -1 19 105 113 75 51 90 127 121 130 86 75 80 81 68 102 64
31 -46 28 112 102 70 73 255 209 127 130 193 177 194 135 151 248 282 288 399 488 458 517 592 576 421 284 212 134 115 47 -9 -47 -13 15 53 50 36 85 115 133 123 134 108 92 103 69 92 116
21 2 -106 51 48 96 95 66 112 156 268 354 408 196 35 161 149 213 265 346 486 488 516 577 589 497 358 264 151 107 83 43 -18 -33 -19 12 32 59 78 157 179 162 158 162 157 128 130 71 95
-20 77 23 -76 83 85 52 79 18 228 358 320 206 212 104 105 57 254 198 369 435 503 514 503 572 554 455 306 208 113 94 63 36 -6 6 40 15 101 170 224 251 228 205 219 187 169 134 113 96
87 -30 -47 99 -14 121 107 20 -6 58 392 461 325 277 217 63 -65 15 148 368 466 464 496 504 516 462 411 320 224 137 90 84 56 45 42 62 92 167 232 324 308 252 241 239 235 190 180 123 106
74 131 42 40 154 90 80 5 52 59 143 339 371 226 134 94 -83 -76 239 265 449 453 469 505 501 479 410 364 253 154 116 94 72 66 86 107 134 291 350 349 339 302 326 318 303 250 207 155 139